ftp/pub/mcmurdo/phoenix/solar/2017/10/NZFX.CRREL.SOLAR.2017.10.10.1830.dat

Download

"TOA5","C150","CR1000","43625","CR1000.Std.22","CPU:247411_r6_eppley4.CR1","44843","eppley_data"
"TIMESTAMP","RECORD","PIR_net","Case_Temp_K","PSP_in_Avg","PSP_in_Min","PSP_in_Max","PIR_in_Avg","PIR_in_Min","PIR_in_Max","wd_2minavg","ws_2minavg","AirTC","RH","BP_mbar"
"TS","RN","","","","","","","","","","","Deg C","Percent","Millibar"
"","","Smp","Smp","Avg","Min","Max","Avg","Min","Max","Smp","Smp","Smp","Smp","Smp"
"2017-10-10 18:30:00",5933,"NAN","NAN","NAN","NAN","NAN","NAN","NAN","NAN",7.048,3.362,-21.85,75.56,980
"2017-10-10 18:40:00",5934,"NAN","NAN","NAN","NAN","NAN","NAN","NAN","NAN",3.809,3.355,-21.54,74.76,980
"2017-10-10 18:50:00",5935,"NAN","NAN","NAN","NAN","NAN","NAN","NAN","NAN",33.49,1.774,-21.23,78.18,980
"2017-10-10 19:00:00",5936,"NAN","NAN","NAN","NAN","NAN","NAN","NAN","NAN",16.79,3.779,-20.76,75.3,980
"2017-10-10 19:10:00",5937,"NAN","NAN","NAN","NAN","NAN","NAN","NAN","NAN",131.8,0.439,-19.77,77.21,980
"2017-10-10 19:20:00",5938,"NAN","NAN","NAN","NAN","NAN","NAN","NAN","NAN",344.2,2.837,-18.54,75.8,980
"2017-10-10 19:30:00",5939,"NAN","NAN","NAN","NAN","NAN","NAN","NAN","NAN",346.3,2.593,-18.54,72.8,980
"2017-10-10 19:40:00",5940,"NAN","NAN","NAN","NAN","NAN","NAN","NAN","NAN",338.8,1.521,-19.19,75.46,980
"2017-10-10 19:50:00",5941,"NAN","NAN","NAN","NAN","NAN","NAN","NAN","NAN",289.4,2.697,-17.07,76.85,980
"2017-10-10 20:00:00",5942,"NAN","NAN","NAN","NAN","NAN","NAN","NAN","NAN",292.6,2.208,-16.49,70.15,981
"2017-10-10 20:10:00",5943,"NAN","NAN","NAN","NAN","NAN","NAN","NAN","NAN",233.2,2.298,-20.01,77.15,981
"2017-10-10 20:20:00",5944,"NAN","NAN","NAN","NAN","NAN","NAN","NAN","NAN",212.7,0.922,-19.98,79.37,981
"2017-10-10 20:30:00",5945,"NAN","NAN","NAN","NAN","NAN","NAN","NAN","NAN",174.9,0.406,-19.23,77.42,980
"2017-10-10 20:40:00",5946,"NAN","NAN","NAN","NAN","NAN","NAN","NAN","NAN",145.5,0.577,-19.74,76.87,980
"2017-10-10 20:50:00",5947,"NAN","NAN","NAN","NAN","NAN","NAN","NAN","NAN",198.7,1.61,-20.22,78.47,980
"2017-10-10 21:00:00",5948,"NAN","NAN","NAN","NAN","NAN","NAN","NAN","NAN",176.1,0.992,-19.23,79.49,981
"2017-10-10 21:10:00",5949,"NAN","NAN","NAN","NAN","NAN","NAN","NAN","NAN",269.1,2.095,-19.03,76.04,981
"2017-10-10 21:20:00",5950,"NAN","NAN","NAN","NAN","NAN","NAN","NAN","NAN",184,0.678,-19.09,78.29,981
"2017-10-10 21:30:00",5951,"NAN","NAN","NAN","NAN","NAN","NAN","NAN","NAN",94.3,0.626,-19.71,72.61,980
"2017-10-10 21:40:00",5952,"NAN","NAN","NAN","NAN","NAN","NAN","NAN","NAN",56.46,1.802,-20.53,77.63,980
"2017-10-10 21:50:00",5953,"NAN","NAN","NAN","NAN","NAN","NAN","NAN","NAN",102.5,1.473,-19.3,80.7,980
"2017-10-10 22:00:00",5954,"NAN","NAN","NAN","NAN","NAN","NAN","NAN","NAN",95.7,2.13,-19.85,79.54,981